[[{"header":{"parameterUnit":"m.s-1","parameterCategory":1,"la1":30.2991,"la2":30.254,"lo1":-89.0895,"lo2":-89.0444,"dy":0.0017,"dx":0.0017,"nx":28,"ny":28,"refTime":"2024-08-20T21:00:00:Z","depth":0,"parameterNumber":2,"parameterNumberName":"U-component_of_WINDS"},"data":[0,0,0,0,0,0,0,0,0,0,0,0,0,0,0,0,0,0,0,0,0,0,0,0,0,0,0,0,0,0,0,0,0,0,0,0,0,0,0,0,0,0,0,0,0,0,0,0,0,0,0,0,0,0,0,0,0,0,-0.1628,-0.1629,0,-0.1655,-0.1656,-0.1656,-0.1661,-0.1661,-0.1661,-0.1661,-0.1691,-0.1692,-0.1693,0,0,0,0,0,0,0,0,0,0,0,0,0,-0.1584,-0.1585,-0.1628,-0.1629,-0.1629,-0.1655,-0.1656,-0.1656,-0.1662,-0.1661,-0.1661,-0.1661,-0.1691,-0.1692,-0.1693,0,0,0,0,0,0,0,0,0,0,0,0,0,-0.1606,-0.1585,-0.1628,-0.1635,-0.1636,-0.1655,-0.1656,-0.1656,-0.1662,-0.1661,-0.1661,-0.1661,-0.169,-0.1692,-0.1693,-0.1709,0,0,-0.1698,-0.1699,0,0,0,0,0,0,0,0,-0.1605,-0.1608,-0.1634,-0.1634,-0.1635,-0.1655,-0.1651,-0.1674,-0.1662,-0.1652,-0.1661,-0.1661,-0.1679,-0.1682,-0.1688,-0.171,-0.1712,-0.1698,-0.1699,-0.17,-0.17,0,0,0,0,0,0,0,-0.1604,-0.1607,-0.1639,-0.1634,-0.1635,-0.1637,-0.164,-0.1655,-0.1667,-0.1653,-0.1653,-0.1656,-0.168,-0.1686,-0.1688,-0.1712,-0.1698,-0.1699,-0.17,-0.1701,-0.1749,-0.1749,0,0,0,0,0,0,-0.1601,-0.1606,-0.1638,-0.164,-0.1619,-0.1638,-0.1641,-0.1649,-0.1667,-0.1669,-0.1656,-0.1656,-0.1684,-0.1687,-0.1689,-0.1709,-0.17,-0.1701,-0.1702,-0.1749,-0.1749,-0.175,0,0,0,0,0,0,-0.16,-0.1603,-0.1637,-0.1623,-0.1627,-0.1639,-0.1648,-0.165,-0.1656,-0.167,-0.1672,-0.166,-0.1684,-0.1687,-0.1704,-0.171,-0.1702,-0.1703,-0.1748,-0.1749,-0.1749,-0.1748,0,0,0,0,0,0,-0.1598,-0.1603,-0.1609,-0.1623,-0.1628,-0.165,-0.1648,-0.165,-0.1658,-0.1658,-0.1674,-0.1677,-0.1684,-0.1702,-0.1705,-0.1712,-0.1704,-0.1748,-0.1748,-0.1749,-0.1748,-0.1749,-0.1749,0,0,0,0,0,-0.1597,-0.1608,-0.1609,-0.1613,-0.1635,-0.1651,-0.1654,-0.1661,-0.1658,-0.1664,-0.1673,-0.1676,-0.1709,-0.1703,-0.1708,-0.1715,-0.1747,-0.1748,-0.1749,-0.1747,-0.1748,-0.1749,0,0,0,0,0,0,-0.1595,-0.161,-0.1611,-0.1627,-0.1637,-0.1652,-0.1659,-0.1662,-0.1674,-0.1674,-0.1683,-0.1686,-0.1702,-0.171,-0.1704,-0.1731,-0.1728,-0.173,-0.1725,-0.1726,-0.1727,-0.1725,-0.1706,0,0,0,0,0,-0.1596,-0.1607,-0.1619,-0.1632,-0.1637,-0.1647,-0.1654,-0.1659,-0.167,-0.1675,-0.1685,-0.1697,-0.171,-0.1719,-0.1731,-0.1749,-0.1753,-0.1756,-0.1757,-0.1757,-0.1759,-0.1769,-0.1771,-0.1752,-0.1752,-0.1752,0,0,-0.1599,-0.1609,-0.1615,-0.1632,-0.1641,-0.1652,-0.1651,-0.1663,-0.1672,-0.1677,-0.1693,-0.1701,-0.1715,-0.1732,-0.174,-0.1739,-0.1765,-0.1758,-0.1759,-0.176,-0.177,-0.1772,-0.1773,-0.1753,-0.1753,-0.1753,0,0,-0.1611,-0.1618,-0.163,-0.1638,-0.1651,-0.1658,-0.166,-0.1674,-0.1679,-0.1695,-0.1699,-0.171,-0.1732,-0.1742,-0.175,-0.1764,-0.1768,-0.1768,-0.1773,-0.1783,-0.1784,-0.1786,-0.1791,-0.1793,-0.177,-0.177,-0.177,0,-0.1613,-0.163,-0.1636,-0.1648,-0.1655,-0.1659,-0.1672,-0.168,-0.1696,-0.1702,-0.17,-0.1728,-0.1737,-0.1757,-0.176,-0.1766,-0.177,-0.1767,-0.1783,-0.1785,-0.1786,-0.1792,-0.1794,-0.177,-0.177,-0.177,-0.177,0,-0.1632,-0.1644,-0.1652,-0.1667,-0.1675,-0.1687,-0.1696,-0.1704,-0.1707,-0.1714,-0.1731,-0.1742,-0.1757,-0.1762,-0.1766,-0.1782,-0.1781,-0.1781,-0.1779,-0.1788,-0.1793,-0.1796,-0.177,-0.177,-0.177,-0.177,0,0,-0.1644,-0.1662,-0.1665,-0.1671,-0.1685,-0.1695,-0.1707,-0.1721,-0.1728,-0.1739,-0.175,-0.1768,-0.1768,-0.1777,-0.1782,-0.1791,-0.1802,-0.179,-0.179,-0.1792,-0.1821,-0.1821,-0.1824,-0.1804,-0.1804,-0.1805,-0.182,0,-0.1658,-0.1679,-0.1685,-0.1703,-0.1714,-0.1718,-0.1729,-0.1739,-0.1746,-0.1757,-0.1764,-0.1777,-0.1776,-0.1782,-0.179,-0.1799,-0.1808,-0.1798,-0.1815,-0.1816,-0.1812,-0.1827,-0.1827,-0.1841,-0.1822,-0.1823,-0.1823,0,-0.1677,-0.1687,-0.1707,-0.1719,-0.1724,-0.1733,-0.1747,-0.1757,-0.1768,-0.1773,-0.1782,-0.1786,-0.18,-0.1796,-0.1816,-0.1809,-0.1816,-0.1822,-0.1822,-0.1825,-0.182,-0.183,-0.1846,-0.1848,-0.1826,-0.1826,-0.1826,0,-0.1684,-0.1703,-0.1717,-0.1723,-0.1738,-0.1744,-0.1751,-0.1762,-0.177,-0.1782,-0.1787,-0.18,-0.1808,-0.1819,-0.1827,-0.1823,-0.1846,-0.1842,-0.1851,-0.185,-0.1856,-0.1856,-0.1874,-0.186,-0.186,-0.1859,-0.1859,0,-0.1699,-0.1711,-0.1721,-0.1729,-0.1743,-0.1749,-0.1763,-0.177,-0.178,-0.179,-0.1794,-0.1805,-0.1814,-0.1826,-0.1832,-0.1848,-0.1851,-0.1856,-0.1857,-0.1856,-0.1855,-0.1861,-0.1861,-0.186,-0.186,-0.186,-0.186,0,-0.171,-0.1717,-0.1733,-0.1745,-0.1748,-0.1758,-0.1768,-0.1777,-0.1784,-0.1797,-0.1801,-0.1811,-0.1825,-0.1834,-0.1852,-0.1856,-0.1874,-0.1875,-0.1869,-0.187,-0.1878,-0.1878,-0.1901,-0.1905,-0.1888,-0.1888,-0.1888,0,-0.172,-0.1729,-0.1742,-0.1749,-0.1755,-0.1766,-0.1774,-0.1781,-0.1789,-0.1803,-0.181,-0.1824,-0.1835,-0.1857,-0.1867,-0.1881,-0.1883,-0.189,-0.1885,-0.1883,-0.1884,-0.1884,-0.1885,-0.1892,-0.1892,-0.1892,-0.1892,0,-0.1736,-0.1739,-0.175,-0.1761,-0.177,-0.178,-0.179,-0.1795,-0.1804,-0.1813,-0.1826,-0.1835,-0.1853,-0.1867,-0.1882,-0.1889,-0.1893,-0.1893,-0.1896,-0.1895,-0.1892,-0.1894,-0.1872,-0.1893,-0.1893,-0.1893,-0.1893,-0.1893,-0.1748,-0.1756,-0.1766,-0.1777,-0.1785,-0.1794,-0.1803,-0.181,-0.1821,-0.1836,-0.1839,-0.1853,-0.1865,-0.1885,-0.1893,-0.1905,-0.1904,-0.1908,-0.1909,-0.191,-0.191,-0.1889,-0.1907,-0.1907,-0.1907,-0.1907,-0.1907,0,-0.1765,-0.1771,-0.1782,-0.1795,-0.1804,-0.1804,-0.1815,-0.1823,-0.1836,-0.1846,-0.1857,-0.1873,-0.1886,-0.1896,-0.1911,-0.1918,-0.192,-0.1922,-0.1922,-0.1924,-0.191,-0.1907,-0.192,-0.192,-0.192,-0.192,-0.192,-0.192,-0.1775,-0.1789,-0.1793,-0.1811,-0.1817,-0.1831,-0.1837,-0.1845,-0.1853,-0.187,-0.1881,-0.1887,-0.1898,-0.1913,-0.1925,-0.1928,-0.1934,-0.1935,-0.1939,-0.1926,-0.1925,-0.1923,-0.192,-0.1936,-0.1936,-0.1951,-0.1951,-0.1951]},{"header":{"parameterUnit":"m.s-1","parameterCategory":1,"la1":30.2991,"la2":30.254,"lo1":-89.0895,"lo2":-89.0444,"dy":0.0017,"dx":0.0017,"nx":28,"ny":28,"refTime":"2024-08-20T21:00:00:Z","depth":0,"parameterNumber":3,"parameterNumberName":"V-component_of_WINDS"},"data":[0,0,0,0,0,0,0,0,0,0,0,0,0,0,0,0,0,0,0,0,0,0,0,0,0,0,0,0,0,0,0,0,0,0,0,0,0,0,0,0,0,0,0,0,0,0,0,0,0,0,0,0,0,0,0,0,0,0,-0.5451,-0.5451,0,-0.5448,-0.5448,-0.5447,-0.5482,-0.5483,-0.5484,-0.5485,-0.5481,-0.5481,-0.548,0,0,0,0,0,0,0,0,0,0,0,0,0,-0.5488,-0.5487,-0.5451,-0.5451,-0.5451,-0.5448,-0.5448,-0.5447,-0.5482,-0.5483,-0.5485,-0.5486,-0.5482,-0.5481,-0.5479,0,0,0,0,0,0,0,0,0,0,0,0,0,-0.5477,-0.5487,-0.5451,-0.5468,-0.5469,-0.5448,-0.5448,-0.5447,-0.5482,-0.5483,-0.5485,-0.5486,-0.5482,-0.5481,-0.5479,-0.5441,0,0,-0.5475,-0.5474,0,0,0,0,0,0,0,0,-0.5478,-0.5476,-0.5465,-0.5467,-0.5468,-0.5467,-0.5459,-0.5445,-0.5482,-0.5477,-0.5485,-0.5487,-0.5475,-0.5475,-0.5471,-0.5441,-0.5441,-0.5475,-0.5474,-0.5473,-0.5473,0,0,0,0,0,0,0,-0.5478,-0.5476,-0.545,-0.5465,-0.5467,-0.5476,-0.5476,-0.5457,-0.5468,-0.5478,-0.548,-0.5479,-0.5476,-0.5472,-0.5471,-0.5441,-0.5475,-0.5473,-0.5472,-0.5472,-0.5382,-0.5381,0,0,0,0,0,0,-0.5477,-0.5476,-0.545,-0.5449,-0.5477,-0.5474,-0.5474,-0.5466,-0.5469,-0.547,-0.5478,-0.5481,-0.5474,-0.5473,-0.5471,-0.5429,-0.5473,-0.5472,-0.5471,-0.5384,-0.5382,-0.538,0,0,0,0,0,0,-0.5477,-0.5474,-0.545,-0.5464,-0.5461,-0.5472,-0.5462,-0.5465,-0.5461,-0.5469,-0.5471,-0.5472,-0.5475,-0.5473,-0.5449,-0.5429,-0.5471,-0.547,-0.5386,-0.5383,-0.5381,-0.5342,0,0,0,0,0,0,-0.5478,-0.5474,-0.5459,-0.5463,-0.546,-0.5427,-0.5461,-0.5464,-0.5458,-0.5462,-0.5463,-0.5465,-0.5476,-0.5451,-0.5447,-0.5428,-0.5468,-0.5387,-0.5384,-0.5382,-0.5345,-0.5339,-0.5333,0,0,0,0,0,-0.548,-0.5448,-0.5458,-0.5455,-0.5442,-0.5426,-0.5425,-0.5438,-0.5456,-0.5442,-0.5448,-0.5465,-0.5431,-0.5448,-0.5444,-0.5424,-0.5389,-0.5385,-0.5382,-0.5348,-0.534,-0.5333,0,0,0,0,0,0,-0.544,-0.5448,-0.546,-0.5429,-0.5427,-0.5432,-0.5414,-0.5429,-0.5421,-0.5425,-0.5442,-0.5442,-0.5416,-0.5417,-0.5436,-0.5388,-0.5413,-0.5409,-0.5389,-0.5381,-0.5375,-0.5376,-0.5467,0,0,0,0,0,-0.5428,-0.5414,-0.5422,-0.5393,-0.5392,-0.5403,-0.5397,-0.5408,-0.5406,-0.5405,-0.5409,-0.5407,-0.5396,-0.5388,-0.5379,-0.5345,-0.5347,-0.5329,-0.5323,-0.5319,-0.5315,-0.53,-0.5293,-0.5369,-0.537,-0.537,0,0,-0.5403,-0.5405,-0.5395,-0.5386,-0.5385,-0.5372,-0.5402,-0.5385,-0.5376,-0.5402,-0.5381,-0.5383,-0.5382,-0.5354,-0.5342,-0.5354,-0.5294,-0.5314,-0.531,-0.531,-0.5296,-0.5288,-0.5282,-0.5367,-0.5368,-0.5368,0,0,-0.5349,-0.5349,-0.5327,-0.5326,-0.5326,-0.5334,-0.5328,-0.5332,-0.5335,-0.5313,-0.5334,-0.5323,-0.5303,-0.5302,-0.5299,-0.5248,-0.5264,-0.5244,-0.5213,-0.5198,-0.5192,-0.5187,-0.5171,-0.5164,-0.524,-0.524,-0.524,0,-0.5318,-0.5297,-0.5313,-0.5296,-0.5292,-0.5316,-0.5294,-0.5293,-0.5289,-0.5286,-0.53,-0.5278,-0.5278,-0.5252,-0.5239,-0.5235,-0.5231,-0.5244,-0.5192,-0.5187,-0.5182,-0.5167,-0.516,-0.5238,-0.5238,-0.5238,-0.5239,0,-0.526,-0.5245,-0.5227,-0.5224,-0.5218,-0.5198,-0.5211,-0.5203,-0.5215,-0.5222,-0.5201,-0.5203,-0.5195,-0.5189,-0.52,-0.5164,-0.5173,-0.5189,-0.5215,-0.5172,-0.5158,-0.5152,-0.5235,-0.5236,-0.5236,-0.5237,0,0,-0.5181,-0.5188,-0.5182,-0.5182,-0.5184,-0.5173,-0.5155,-0.5148,-0.5142,-0.5139,-0.5125,-0.5109,-0.5125,-0.5122,-0.5133,-0.5119,-0.5081,-0.5138,-0.5138,-0.5129,-0.5045,-0.5034,-0.5026,-0.5092,-0.5091,-0.509,-0.5046,0,-0.5131,-0.5101,-0.5116,-0.5084,-0.5073,-0.5096,-0.5081,-0.5081,-0.5087,-0.5079,-0.5085,-0.5075,-0.5095,-0.5094,-0.5082,-0.5089,-0.5065,-0.5092,-0.5081,-0.508,-0.5082,-0.5019,-0.5006,-0.4964,-0.504,-0.5039,-0.5038,0,-0.5068,-0.5064,-0.5032,-0.5039,-0.5034,-0.502,-0.5016,-0.5007,-0.5008,-0.5014,-0.5011,-0.5026,-0.501,-0.5034,-0.5014,-0.5032,-0.5028,-0.5031,-0.5029,-0.503,-0.5058,-0.5019,-0.4951,-0.4945,-0.5029,-0.503,-0.5031,0,-0.5017,-0.5003,-0.4983,-0.4982,-0.4988,-0.4978,-0.498,-0.4983,-0.4979,-0.4975,-0.4973,-0.4967,-0.4964,-0.496,-0.4973,-0.499,-0.4951,-0.4977,-0.4957,-0.4956,-0.4948,-0.4949,-0.488,-0.4943,-0.4943,-0.4943,-0.4944,0,-0.496,-0.494,-0.496,-0.4948,-0.4926,-0.4943,-0.4922,-0.4927,-0.4929,-0.4919,-0.4938,-0.4928,-0.4946,-0.4938,-0.4948,-0.493,-0.4928,-0.4933,-0.4937,-0.4932,-0.4932,-0.4931,-0.4935,-0.4942,-0.4942,-0.4942,-0.4943,0,-0.49,-0.4912,-0.4892,-0.49,-0.4902,-0.4886,-0.4894,-0.4883,-0.4891,-0.4878,-0.4876,-0.4888,-0.488,-0.4893,-0.4885,-0.4892,-0.4869,-0.4875,-0.4868,-0.4871,-0.4851,-0.4854,-0.4781,-0.4773,-0.4839,-0.4839,-0.4838,0,-0.4863,-0.4849,-0.4856,-0.4851,-0.4853,-0.4844,-0.484,-0.4856,-0.4852,-0.4853,-0.4843,-0.4836,-0.4832,-0.4818,-0.4827,-0.4822,-0.483,-0.4804,-0.4829,-0.4826,-0.4832,-0.4833,-0.4833,-0.48,-0.4799,-0.4798,-0.4798,0,-0.4799,-0.4806,-0.48,-0.4797,-0.4792,-0.479,-0.4789,-0.4784,-0.4801,-0.4795,-0.4787,-0.4784,-0.4778,-0.4772,-0.4769,-0.4772,-0.4788,-0.479,-0.4786,-0.4782,-0.4779,-0.4783,-0.4857,-0.4792,-0.4792,-0.4793,-0.4793,-0.4793,-0.4751,-0.474,-0.4744,-0.4737,-0.4739,-0.4738,-0.473,-0.4737,-0.4731,-0.4728,-0.4737,-0.4728,-0.4731,-0.473,-0.4731,-0.4724,-0.4736,-0.4728,-0.4727,-0.4725,-0.4723,-0.4779,-0.4724,-0.4724,-0.4724,-0.4724,-0.4724,0,-0.4689,-0.4693,-0.4687,-0.4686,-0.4681,-0.4697,-0.4698,-0.4693,-0.4684,-0.4686,-0.4682,-0.4674,-0.4669,-0.4677,-0.4674,-0.4667,-0.4674,-0.4666,-0.4667,-0.4668,-0.4712,-0.4718,-0.466,-0.466,-0.466,-0.466,-0.466,-0.466,-0.4656,-0.4639,-0.4647,-0.4632,-0.4637,-0.4628,-0.4627,-0.4627,-0.4629,-0.462,-0.4616,-0.4622,-0.4627,-0.4624,-0.462,-0.4623,-0.4622,-0.4611,-0.4616,-0.4658,-0.4664,-0.467,-0.4676,-0.461,-0.461,-0.4573,-0.4572,-0.4572]}]]